Weather History for KAVL - July, 2013

Change the Weather History Date:

Monday, July 22, 2013

  Actual Average Record
Temperature  
Mean Temperature 74 °F 74 °F  
Max Temperature 81 °F 84 °F 96 °F (1926)
Min Temperature 66 °F 64 °F 52 °F (1966)
Degree Days  
Heating Degree Days 0 0  
Month to date heating degree days 0 0  
Since 1 June heating degree days 0 14  
Since 1 July heating degree days 0 0  
Cooling Degree Days 9 9  
Month to date cooling degree days 199 194  
Year to date cooling degree days 452 429  
Since 1 June cooling degree days 401 371  
Growing Degree Days 24 (Base 50)    
Moisture  
Dew Point 68 °F    
Average Humidity 86    
Maximum Humidity 100    
Minimum Humidity 71    
Precipitation  
Precipitation 0.83 in 0.14 in 1.66 in (1946)
Month to date precipitation 11.74 3.07  
Year to date precipitation 49.83 25.97  
Snow  
Snow 0.00 in 0.00 in 0.00 in ()
Month to date snowfall 0.0 0.0  
Since 1 June snowfall 0.0 0.0  
Since 1 July snowfall 0.0 0.0  
Snow Depth 0.00 in    
Sea Level Pressure  
Sea Level Pressure 29.96 in    
Wind  
Wind Speed 6 mph (NW)    
Max Wind Speed 17 mph    
Max Gust Speed 21 mph    
Visibility 8 miles    
Events Rain    
T = Trace of Precipitation, MM = Missing Value Source: NWS Daily Summary

Daily Weather History Graph

Daily Weather History Graph

Search for Another Location

Airport or City:

Trip Planner

Search our weather history database for the weather conditions in past years. The results will help you decide how hot, cold, wet, or windy it might be!

Date:

Astronomy

Jul. 22, 2013 Rise Set
Actual Time 6:31 AM EDT 8:41 PM EDT
Civil Twilight 6:02 AM EDT 9:10 PM EDT
Nautical Twilight 5:27 AM EDT 9:45 PM EDT
Astronomical Twilight 4:49 AM EDT 10:22 PM EDT
Moon 8:30 PM EDT (7/22) 6:24 AM EDT (7/22)
Length of Visible Light 15h 07m
Length of Day
14h 10m
Full, 100% of the Moon is Illuminated
Jul 22
Full
Jul 22
Full
Jul 29
Last Quarter
Aug 6
New
Aug 14
First Quarter

Hourly Weather History & Observations

Time (EDT) Temp. Dew Point Humidity Pressure Visibility Wind Dir Wind Speed Gust Speed Precip Events Conditions
12:06 AM 68.0 °F 66.2 °F 94% 30.10 in 10.0 mi Calm Calm - 0.00 in   Mostly Cloudy
12:54 AM 68.0 °F 66.9 °F 96% 30.00 in 10.0 mi Calm Calm - 0.00 in   Overcast
1:54 AM 68.0 °F 66.9 °F 96% 29.98 in 10.0 mi NNW 3.5 mph - 0.00 in   Overcast
2:54 AM 68.0 °F 66.9 °F 96% 29.96 in 10.0 mi North 3.5 mph - N/A   Overcast
3:54 AM 68.0 °F 66.0 °F 93% 29.94 in 10.0 mi NNW 5.8 mph - 0.00 in   Overcast
4:07 AM 68.0 °F 66.2 °F 94% 30.01 in 10.0 mi North 5.8 mph - N/A   Overcast
4:36 AM 66.2 °F 66.2 °F 100% 30.01 in 10.0 mi NNW 8.1 mph - N/A   Scattered Clouds
4:54 AM 68.0 °F 66.0 °F 93% 29.93 in 10.0 mi NNW 6.9 mph - N/A   Mostly Cloudy
5:40 AM 66.2 °F 66.2 °F 100% 30.02 in 9.0 mi WSW 3.5 mph - N/A   Overcast
5:54 AM 66.9 °F 66.0 °F 97% 29.96 in 10.0 mi WSW 3.5 mph - N/A   Overcast
6:09 AM 66.2 °F 64.4 °F 94% 30.02 in 10.0 mi Calm Calm - N/A   Overcast
6:37 AM 66.2 °F 66.2 °F 100% 30.03 in 10.0 mi Calm Calm - N/A   Overcast
6:54 AM 66.9 °F 66.0 °F 97% 29.97 in 9.0 mi Calm Calm - N/A   Overcast
7:07 AM 66.2 °F 66.2 °F 100% 30.04 in 10.0 mi Calm Calm - N/A   Overcast
7:54 AM 68.0 °F 66.0 °F 93% 29.98 in 10.0 mi WNW 3.5 mph - N/A   Overcast
8:54 AM 70.0 °F 66.9 °F 90% 29.99 in 10.0 mi North 3.5 mph - N/A   Overcast
9:54 AM 72.0 °F 68.0 °F 87% 29.99 in 10.0 mi Variable 4.6 mph - N/A   Mostly Cloudy
10:26 AM 73.4 °F 66.2 °F 78% 30.06 in 10.0 mi Calm Calm - N/A   Mostly Cloudy
10:33 AM 73.4 °F 68.0 °F 83% 30.06 in 10.0 mi NW 3.5 mph - N/A   Scattered Clouds
10:54 AM 75.9 °F 68.0 °F 76% 29.98 in 10.0 mi Calm Calm - N/A   Clear
11:54 AM 79.0 °F 68.0 °F 69% 29.97 in 10.0 mi NE 3.5 mph - N/A   Partly Cloudy
12:54 PM 73.9 °F 66.9 °F 79% 29.97 in 5.0 mi NNW 13.8 mph 20.7 mph 0.00 in Rain Rain
12:58 PM 71.6 °F 66.2 °F 83% 30.05 in 1.5 mi WNW 12.7 mph 20.7 mph 0.02 in Rain Heavy Rain
1:01 PM 71.6 °F 66.2 °F 83% 30.05 in 0.8 mi Variable 6.9 mph 16.1 mph 0.10 in Rain Heavy Rain
1:15 PM 71.6 °F 66.2 °F 83% 30.03 in 1.8 mi Calm Calm - 0.45 in Rain Light Rain
1:17 PM 73.4 °F 66.2 °F 78% 30.03 in 4.0 mi Variable 4.6 mph - 0.45 in Rain Light Rain
1:54 PM 78.1 °F 68.0 °F 71% 29.93 in 10.0 mi Variable 3.5 mph - 0.45 in   Clear
2:46 PM 73.4 °F 69.8 °F 88% 29.99 in 2.5 mi SSE 5.8 mph - 0.06 in Rain Rain
2:54 PM 75.9 °F 70.0 °F 82% 29.91 in 10.0 mi East 5.8 mph - 0.07 in Rain Light Rain
3:54 PM 73.9 °F 71.1 °F 91% 29.89 in 3.0 mi NNE 4.6 mph - 0.00 in Rain Light Rain
4:01 PM 73.4 °F 71.6 °F 94% 29.96 in 2.5 mi Calm Calm - 0.06 in Rain Light Rain
4:08 PM 73.4 °F 71.6 °F 94% 29.96 in 10.0 mi Calm Calm - 0.06 in   Overcast
4:19 PM 73.4 °F 71.6 °F 94% 29.96 in 1.8 mi East 4.6 mph - 0.06 in Rain Heavy Rain
4:27 PM 73.4 °F 69.8 °F 88% 29.96 in 1.2 mi Variable 4.6 mph - 0.28 in Rain Rain
4:30 PM 73.4 °F 69.8 °F 88% 29.95 in 2.5 mi Variable 3.5 mph - 0.28 in Rain Light Rain
4:37 PM 75.2 °F 71.6 °F 89% 29.95 in 10.0 mi Calm Calm - 0.29 in Rain Light Rain
4:54 PM 75.9 °F 72.0 °F 87% 29.87 in 6.0 mi South 13.8 mph 17.3 mph 0.29 in Rain Rain
5:54 PM 79.0 °F 70.0 °F 74% 29.85 in 10.0 mi South 13.8 mph - 0.01 in   Scattered Clouds
6:54 PM 78.1 °F 69.1 °F 74% 29.85 in 10.0 mi South 9.2 mph - N/A   Scattered Clouds
7:54 PM 75.0 °F 69.1 °F 82% 29.86 in 10.0 mi South 6.9 mph - N/A   Partly Cloudy
8:54 PM 73.9 °F 69.1 °F 85% 29.86 in 10.0 mi South 6.9 mph - 0.00 in   Mostly Cloudy
9:54 PM 72.0 °F 70.0 °F 93% 29.89 in 10.0 mi SW 3.5 mph - 0.01 in   Overcast
10:54 PM 70.0 °F 69.1 °F 97% 29.90 in 10.0 mi Calm Calm - N/A   Clear
11:54 PM 69.1 °F 68.0 °F 96% 29.89 in 10.0 mi NW 5.8 mph - N/A   Clear